Location: Ahausen
(50.4985°N, 8.2722°E)
Time: 11:06:31
(UTC+00:00)

Cosmos 1844 Rocket - Pass Details

Date: 18 September 2020
Orbit: 823 x 846 km, 71.0° (Epoch: 25 October)

Event Time Altitude Azimuth Distance (km) Brightness Sun altitude
Rises 17:58:18 0° 145° (SE) 3,349 5.4 -4.8°
Reaches altitude 10° 18:02:28 10° 115° (ESE) 2,426 4.5 -5.5°
Maximum altitude 18:04:20 12° 95° (E) 2,308 4.3 -5.8°
Drops below altitude 10° 18:06:13 10° 75° (ENE) 2,435 4.5 -6.0°
Sets 18:10:24 0° 45° (NE) 3,380 5.5 -6.7°
